www.pogodaiklimat.ru

Погода и климат >> Архив погоды >> Россия >> Ханты-Мансийский АО >> Леуши


ПОГОДА в Леушах

  • Прогноз погоды в Леушах
  • Монитор погоды в Леушах
  • Климат города

АРХИВ ПОГОДЫ в Леушах

Время (UTC), дата Ветер
(напр.,м/с)
 
Видим.   Явления Облачность Т
(С)
Тd
(С)
f
(%)
Тe
(С)
Тes
(С)
Комфортность P
(гПа)
Po
(гПа)
Тmin
(С)
Tmax
(С)
R
(мм)
R24
(мм)
S
(см)
06 17.08 СЗ 3 50 км 9/6 600 м
[Sc Ac As]
+16.9 +9.6 62 +17 +18 1022.7 1014.3
09 17.08 СЗ 3
{12}
50 км в посл. час дождь 8/8 600 м
[Sc Cc]
+15.3 +10.3 72 +15 +16 1023.5 1015.1
12 17.08 СЗ 6 50 км {дождь} 8/6 600 м
[Sc Ac trans]
+15.8 +8.4 61 +15 +15 1023.5 1015.1
15 17.08 СЗ 3
{10}
50 км 8/8 600 м
[Sc]
+13.8 +9.7 76 +13 +13 1024.4 1015.9 +17.2 0.0
18 17.08 СЗ 4 20 км 3/3 600 м
[Sc diur, vesp]
+12.2 +9.5 84 +10 +10 1025.2 1016.7
21 17.08 С 3 20 км 3/3 600 м
[Sc diur, vesp]
+11.0 +9.1 88 +9 +9 1026.0 1017.4
00 18.08 С 2 50 км 4/4 600 м
[Sc]
+10.5 +8.4 87 +9 +9 1026.6 1018.0
03 18.08 СЗ 2 50 км 5/0
[Ci sp]
+11.4 +8.5 82 +10 +13 1027.4 1018.8 +9.7
06 18.08 СЗ 2 50 км 4/3 1000 м
[Cu hum Ci]
+15.7 +6.5 54 +16 +22 1027.5 1019.1
09 18.08 СЗ 3 50 км 9/8 600 м
[Sc diur, vesp Ci]
+17.5 +4.8 43 +18 +19 1026.5 1018.1
12 18.08 СЗ 2 50 км 9/6 600 м
[Sc diur, vesp Ci sp]
+16.9 +5.9 48 +17 +18 1025.1 1016.7
15 18.08 штиль 0 50 км 3/1 600 м
[Sc diur, vesp Ci fib]
+13.2 +9.4 78 +13 +13 1024.3 1015.8 +18.3
18 18.08 ЮВ 1 20 км 3/1 600 м
[Sc diur, vesp Ci fib]
+10.0 +7.4 84 +10 +10 1023.9 1015.3
21 18.08 Ю 1 20 км 3/1 600 м
[Sc diur, vesp Ci fib]
+8.9 +7.0 88 +8 +8 1022.9 1014.3
00 19.08 Ю 2 50 км 9/9 600 м
[Sc]
+8.7 +6.9 88 +7 +7 1022.1 1013.5
03 19.08 ЮЗ 1 50 км 10/3 600 м
[Sc Ac cast Cc]
+11.5 +8.1 80 +11 +12 1021.3 1012.8 +8.2
06 19.08 З 1 50 км 10/3 600 м
[Sc Ci fib]
+18.7 +10.3 58 +20 +26 1020.1 1011.8
09 19.08 З 2 50 км 10/3 600 м
[Sc Cc]
+21.4 +12.6 57 +24 +29 комфорт 1019.5 1011.3
12 19.08 СЗ 4 50 км 10/3 600 м
[Sc Ci sp]
+21.9 +11.8 53 +24 +25 комфорт 1019.3 1011.1
15 19.08 З 1 50 км 10/5 600 м
[Sc Ci]
+18.6 +12.6 68 +20 +20 1019.7 1011.4 +22.3
18 19.08 ЮЗ 1 50 км 3/3 600 м
[Sc diur, vesp]
+14.5 +12.4 87 +15 +15 1020.4 1012.0
21 19.08 ЮЗ 1 50 км 3/3 600 м
[Sc diur, vesp]
+13.4 +12.2 92 +14 +14 1020.2 1011.8
00 20.08 ЮЗ 1 50 км 8/6 600 м
[Sc Ci fib]
+13.2 +12.1 93 +13 +13 1019.9 1011.5
03 20.08 З 1 50 км 9/8 600 м
[Sc Ci sp]
+15.8 +13.4 86 +16 +17 1020.0 1011.6 +12.9
06 20.08 З 2 50 км 9/1 600 м
[Sc diur, vesp Ac trans Ci sp]
+20.8 +14.2 66 +24 +29 комфорт 1019.3 1011.1
09 20.08 З 2 50 км 10/6 600 м
[Sc diur, vesp Ci]
+23.1 +11.8 49 +26 +29 жарко 1018.4 1010.2
12 20.08 штиль 0 50 км 8/6 600 м
[Cb cap Ci fib]
+21.3 +12.9 59 +24 +25 комфорт 1017.9 1009.7
15 20.08 Ю 1 50 км 10/10 600 м
[Sc]
+18.4 +13.9 75 +20 +20 1018.2 1009.9 +24.3
18 20.08 ЮВ 1 20 км 3/3 600 м
[Sc diur, vesp]
+14.8 +13.5 92 +15 +15 1018.8 1010.4
21 20.08 Ю 1 20 км ясно +14.5 +13.5 94 +15 +15 1018.5 1010.1
00 21.08 Ю 1 4000 м дымка ясно +13.1 +12.4 96 +13 +13 1019.4 1010.9
03 21.08 ЮЗ 1 2000 м дымка ясно +14.2 +13.5 96 +14 +17 1019.7 1011.3 +13.1
06 21.08 З 2 50 км 3/1 1000 м
[Cu hum Ci]
+20.0 +15.4 75 +23 +30 комфорт 1019.8 1011.6
09 21.08 З 1 50 км 5/3 600 м
[Sc diur, vesp Ci sp]
+24.3 +14.5 54 +27 +34 жарко 1019.2 1011.1
12 21.08 З 2 50 км 3/1 600 м
[Sc diur, vesp Ci sp]
+24.7 +14.0 51 +27 +30 жарко 1018.6 1010.5
15 21.08 З 1 50 км 10/0
[Ac lent Cc]
+21.6 +14.9 66 +25 +25 комфорт 1018.8 1010.6 +25.0
18 21.08 ЮЗ 1 20 км 10/0
[Ci fib]
+18.6 +14.7 78 +20 +20 1019.0 1010.7
21 21.08 З 2 20 км ясно +18.0 +14.9 82 +19 +19 1019.2 1010.9
00 22.08 ЮЗ 2 50 км 4/3 600 м
[Sc diur, vesp Ac trans Ci fib]
+16.6 +15.1 91 +17 +17 1020.6 1012.3
03 22.08 СЗ 1 50 км 5/0
[Cs]
+19.8 +17.2 85 +23 +26 комфорт 1022.1 1013.8 +16.5
06 22.08 СЗ 2 50 км 10/0
[Ci]
+24.6 +15.2 56 +28 +34 душно 1023.0 1014.9
09 22.08 СЗ 3 50 км 10/0
[Ci fib]
+26.8 +14.2 46 +29 +35 жарко 1022.6 1014.5
12 22.08 З 1 50 км 3/3 1000 м
[Cu hum]
+28.1 +15.4 46 +31 +33 душно 1022.4 1014.4
15 22.08 ЮЗ 1 50 км 1/0
[Ci fib]
+23.7 +16.1 62 +27 +27 жарко 1022.7 1014.5 +28.1
18 22.08 ЮЗ 2 20 км ясно +20.6 +16.8 79 +25 +25 комфорт 1023.6 1015.4
21 22.08 ЮЗ 2 20 км ясно +18.4 +16.5 89 +20 +20 1024.1 1015.8
00 23.08 ЮЗ 2 4000 м 3/0
[Ci]
+17.3 +16.0 92 +18 +18 1024.5 1016.2
03 23.08 Ю 1 10 км дымка ясно +20.5 +16.8 79 +25 +28 комфорт 1025.2 1016.9 +16.8
06 23.08 ЮЗ 1 50 км 3/0
[Ac lent Ci fib]
+27.4 +18.4 58 +32 +41 очень
душно
1024.6 1016.5
09 23.08 З 2 50 км ясно +29.8 +14.4 39 +32 +40 душно 1024.2 1016.2
12 23.08 З 2 10 км дым 3/0
[Ci fib]
+29.6 +11.5 33 +30 +33 жарко 1023.6 1015.6
15 23.08 ЮВ 1 10 км 10/0
[Cs]
+23.2 +16.2 65 +28 +28 душно 1023.8 1015.6 +30.3
18 23.08 ЮВ 1 10 км дым 10/0
[Cs]
+21.3 +16.4 74 +25 +25 комфорт 1023.7 1015.4
21 23.08 Ю 1 10 км дым ясно +19.7 +16.6 82 +23 +23 комфорт 1023.7 1015.4
00 24.08 Ю 1 10 км 10/0
[Cs]
+18.0 +16.2 89 +19 +19 1023.6 1015.3
03 24.08 ЮЗ 2 10 км дым 4/0
[Ci sp]
+20.2 +16.3 78 +24 +26 комфорт 1023.9 1015.6 +17.6

 

Местоположение метеостанции Леуши (Ханты-Мансийский АО, Россия): широта 59.63 долгота 65.72 высота над уровнем моря 72 м.

В архиве по умолчанию представлена погода в Леушах за последнюю неделю. Архивные данные за месяц целиком и за предыдущие месяцы, начиная с января 2011 года, Вы можете получить, выбрав интересующий диапазон дат из раскрывающегося списка и нажав кнопку "Ввод!".

Внимание! Время в таблицах - всемирное. Для получения местного времени необходимо прибавить поправку, которая в Леушах равна 5 ч.

Смотрите также архив погоды в соседних городах и на ближайших метеорологических станциях:

Погода в Кондинском (Ханты-Мансийский АО, Россия) (96 км)
Погода в Куминской (Ханты-Мансийский АО, Россия) (103 км)
Погода в Шаиме (Ханты-Мансийский АО, Россия) (113 км)
Погода в Таборах (Свердловская область, Россия) (141 км)
Погода в Тавде (Свердловская область, Россия) (175 км)
Погода в Увате (Тюменская область, Россия) (188 км)
Погода в Гари (Свердловская область, Россия) (192 км)
Погода в Алтае (Ханты-Мансийский АО, Россия) (197 км)
Погода в Демьянском (Тюменская область, Россия) (200 км)
Погода в Туринске (Свердловская область, Россия) (211 км)

Пояснения к столбцам:

Ветер - указаны скорость ветра в м/с - средняя за 10 мин, порывы в срок и между сроками (в фигурных скобках) и направление, откуда дует ветер: С - северный, СВ - северо-восточный, В - восточный, ЮВ - юго-восточный, Ю - южный, ЮЗ - юго-западный, З - западный, СЗ - северо-западный.
Видимость - горизонтальная дальность видимости в метрах или километрах. При видимости от 1 до 10 км при отсутствии осадков обычно наблюдается дымка, при ухудшении видимости до 1 км и менее - туман. В сухую погоду видимость может ухудшаться дымом, пылью или мглою.
Явления - указаны атмосферные явления, наблюдавшиеся в срок или в последний час перед сроком; фигурными скобками обозначены явления, наблюдавшиеся между сроками (за 1-3 часа до срока); квадратными скобками обозначены град или гололедные отложения с указанием их диаметра в мм.
Облачность - указаны через наклонную черту общая и нижняя облачность в баллах и высота нижней границы облаков в метрах; квадратными скобками обозначены формы облаков: Ci - перистые, Cs - перисто-слоистые, Cc - перисто-кучевые, Ac - высококучевые, As - высокослоистые, Sc - слоисто-кучевые, Ns - слоисто-дождевые, Cu - кучевые, Cb - кучево-дождевые. Подробнее классификацию облаков см. в Атласе облаков (PDF).
T - Температура воздуха - температура, измеренная на высоте 2 м над землей.
Td - Температура точки росы - температура, при понижении до которой содержащийся в воздухе водяной пар достигнет насыщения.
f - Относительная влажность воздуха - влажноcть воздуха, измеренная на высоте 2 м над землей.
Te - Эффективная температура - температура, которую ощущает одетый по сезону человек в тени. Характеристика душности погоды. При расчете учитывается влияние влажности воздуха и скорости ветра на теплоощущения человека.
Tes - Эффективная температура на солнце - температура, которую ощущает человек, с поправкой на солнечный нагрев. Характеристика знойности погоды. Зависит от высоты солнца над горизонтом, облачности и скорости ветра. Ночью, в пасмурную погоду, а также при ветре 12 м/с и более поправка равна нулю.
P - Атмосферное давление - приведенное к уровню моря атмосферное давление.
Po - Атмосферное давление - измеренное на уровне метеостанции атмосферное давление.
Tmin - Минимальная температура - минимум температуры воздуха на высоте 2 м над землей.
Tmax - Максимальная температура - максимум температуры воздуха на высоте 2 м над землей.
R - Количество осадков - Количество выпавших осадков за период времени, мм. При наведении курсора мыши на число - период времени, за который выпало указанное количество осадков.
R24 - Количество осадков - Количество выпавших осадков за 24 часа, мм.
S - Снежный покров - Высота снежного покрова, см. При наведении курсора мыши на число - состояние снежного покрова и степень покрытия местности в баллах.